Weather History for Pine Ridge, SD

Change the Weather History Date:

Monday, September 23, 2013

  Actual Average Record
Temperature  
Mean Temperature 51 °F 58 °F  
Max Temperature 59 °F 74 °F 91 °F (2007)
Min Temperature 42 °F 41 °F 33 °F (2000)
Degree Days  
Heating Degree Days 14 8  
Month to date heating degree days 54 116  
Since 1 July heating degree days 56 153  
Cooling Degree Days 0 1  
Month to date cooling degree days 148 62  
Year to date cooling degree days 800 710  
Moisture  
Dew Point 53 °F    
Average Humidity 97    
Maximum Humidity 100    
Minimum Humidity 93    
Precipitation  
Precipitation 0.84 in 0.06 in 1.10 in (2010)
Month to date precipitation 1.42 1.30  
Year to date precipitation 15.69 15.09  
Sea Level Pressure  
Sea Level Pressure 29.71 in    
Wind  
Wind Speed 7 mph (NNW)    
Max Wind Speed 24 mph    
Max Gust Speed 35 mph    
Visibility 6 miles    
Events Fog , Rain    
T = Trace of Precipitation, MM = Missing Value Source: NWS Daily Summary

Daily Weather History Graph

Daily Weather History Graph

Search for Another Location

Airport:

Trip Planner

Search our weather history database for the weather conditions in past years. The results will help you decide how hot, cold, wet, or windy it might be!

Date:

Astronomy

Sep. 23, 2013 Rise Set
Actual Time 6:38 AM MDT 6:45 PM MDT
Civil Twilight 6:10 AM MDT 7:13 PM MDT
Nautical Twilight 5:37 AM MDT 7:46 PM MDT
Astronomical Twilight 5:03 AM MDT 8:20 PM MDT
Moon 9:11 PM MDT (9/23) 11:07 AM MDT (9/23)
Length of Visible Light 13h 02m
Length of Day
12h 06m
Waning Gibbous, 81% of the Moon is Illuminated
Sep 23
Waning Gibbous
Sep 26
Last Quarter
Oct 4
New
Oct 11
First Quarter
Oct 18
Full

Hourly Weather History & Observations

Time (MDT) Temp. Windchill Dew Point Humidity Pressure Visibility Wind Dir Wind Speed Gust Speed Precip Events Conditions
12:52 AM 57.9 °F - 57.0 °F 97% 29.45 in 10.0 mi Calm Calm - N/A   Clear
1:52 AM 57.0 °F - 55.9 °F 96% 29.43 in 9.0 mi East 5.8 mph - N/A   Clear
2:52 AM 57.0 °F - 55.0 °F 93% 29.40 in 10.0 mi East 5.8 mph - N/A   Clear
3:52 AM 55.9 °F - 55.0 °F 97% 29.43 in 10.0 mi WNW 3.5 mph - N/A   Clear
4:52 AM 54.0 °F - 54.0 °F 100% 29.45 in 9.0 mi SSW 4.6 mph - N/A   Partly Cloudy
5:06 AM 55.4 °F - 55.4 °F 100% 29.54 in 9.0 mi Calm Calm - N/A   Mostly Cloudy
5:39 AM 55.4 °F - 55.4 °F 100% 29.55 in 9.0 mi Calm Calm - N/A   Mostly Cloudy
5:52 AM 55.9 °F - 55.0 °F 97% 29.46 in 8.0 mi SW 3.5 mph - N/A   Mostly Cloudy
6:07 AM 55.4 °F - 55.4 °F 100% 29.55 in 8.0 mi Calm Calm - N/A   Scattered Clouds
6:52 AM 55.9 °F - 55.0 °F 97% 29.46 in 7.0 mi Calm Calm - N/A   Partly Cloudy
7:17 AM 55.4 °F - 55.4 °F 100% 29.55 in 2.5 mi East 5.8 mph - N/A   Mostly Cloudy
7:23 AM 55.4 °F - 55.4 °F 100% 29.55 in 1.2 mi East 4.6 mph - N/A   Mostly Cloudy
7:38 AM 55.4 °F - 55.4 °F 100% 29.56 in 3.0 mi East 3.5 mph - N/A   Mostly Cloudy
7:52 AM 57.0 °F - 55.9 °F 96% 29.51 in 9.0 mi South 10.4 mph - N/A   Overcast
8:00 AM 57.2 °F - 57.2 °F 100% 29.60 in 8.0 mi South 13.8 mph 20.7 mph 0.01 in Rain Light Rain
8:09 AM 57.2 °F - 55.4 °F 94% 29.60 in 2.5 mi South 8.1 mph 20.7 mph 0.07 in Rain Rain
8:13 AM 57.2 °F - 55.4 °F 94% 29.59 in 1.2 mi Variable 3.5 mph 18.4 mph 0.11 in Rain Heavy Rain
8:25 AM 57.2 °F - 55.4 °F 94% 29.60 in 3.0 mi WNW 4.6 mph - 0.13 in Rain Light Rain
8:40 AM 57.2 °F - 57.2 °F 100% 29.59 in 4.0 mi NNE 4.6 mph - 0.15 in Rain Light Rain
8:52 AM 57.9 °F - 57.0 °F 97% 29.56 in 5.0 mi Calm Calm - 0.16 in Rain Light Rain
9:09 AM 57.2 °F - 57.2 °F 100% 29.61 in 2.5 mi Calm Calm - 0.04 in Rain Rain
9:20 AM 57.2 °F - 57.2 °F 100% 29.61 in 3.0 mi North 4.6 mph - 0.06 in Rain Light Rain
9:45 AM 57.2 °F - 57.2 °F 100% 29.62 in 10.0 mi North 4.6 mph - 0.08 in Rain Light Rain
9:52 AM 57.9 °F - 55.9 °F 93% 29.58 in 10.0 mi North 8.1 mph - 0.08 in Rain Light Rain
10:06 AM 57.2 °F - 55.4 °F 94% 29.63 in 10.0 mi North 10.4 mph - 0.00 in Rain Light Rain
10:52 AM 57.0 °F - 55.0 °F 93% 29.60 in 10.0 mi North 15.0 mph 26.5 mph 0.00 in   Overcast
11:01 AM 57.2 °F - 55.4 °F 94% 29.65 in 10.0 mi North 12.7 mph 23.0 mph N/A   Overcast
11:11 AM 57.2 °F - 53.6 °F 88% 29.66 in 7.0 mi North 17.3 mph 25.3 mph 0.01 in Rain Rain
11:36 AM 53.6 °F - 51.8 °F 94% 29.68 in 10.0 mi NNW 19.6 mph 33.4 mph 0.03 in Rain Light Rain
11:52 AM 54.0 °F - 52.0 °F 93% 29.66 in 4.0 mi NNW 20.7 mph 29.9 mph 0.05 in Rain Rain
12:02 PM 53.6 °F - 51.8 °F 94% 29.70 in 1.8 mi NNW 19.6 mph 27.6 mph 0.04 in Rain Rain
12:10 PM 53.6 °F - 51.8 °F 94% 29.71 in 3.0 mi NNW 17.3 mph 28.8 mph 0.05 in Rain Light Rain
12:19 PM 53.6 °F - 51.8 °F 94% 29.71 in 2.5 mi NNW 19.6 mph 29.9 mph 0.07 in Rain Rain
12:32 PM 53.6 °F - 51.8 °F 94% 29.72 in 3.0 mi North 13.8 mph 24.2 mph 0.11 in Rain Light Rain
12:47 PM 53.6 °F - 51.8 °F 94% 29.73 in 1.8 mi North 16.1 mph 23.0 mph 0.16 in Rain Heavy Rain
12:52 PM 53.1 °F - 51.1 °F 93% 29.70 in 2.0 mi North 15.0 mph 23.0 mph 0.17 in Rain Rain
1:10 PM 53.6 °F - 51.8 °F 94% 29.74 in 3.0 mi NNW 12.7 mph - 0.04 in Rain Rain
1:19 PM 53.6 °F - 51.8 °F 94% 29.74 in 4.0 mi NNW 12.7 mph 21.9 mph 0.06 in Rain Light Rain
1:34 PM 53.6 °F - 51.8 °F 94% 29.75 in 2.5 mi NNW 12.7 mph 19.6 mph 0.09 in Rain Rain
1:37 PM 53.6 °F - 51.8 °F 94% 29.75 in 3.0 mi NNW 10.4 mph 19.6 mph 0.09 in Rain Rain
1:52 PM 53.1 °F - 52.0 °F 96% 29.73 in 5.0 mi NNW 10.4 mph 18.4 mph 0.10 in Rain Light Rain
2:28 PM 53.6 °F - 51.8 °F 94% 29.78 in 2.5 mi North 10.4 mph - 0.04 in Rain Rain
2:48 PM 53.6 °F - 51.8 °F 94% 29.78 in 3.0 mi NNW 8.1 mph - 0.09 in Rain Rain
2:52 PM 53.1 °F - 52.0 °F 96% 29.76 in 3.0 mi NNW 9.2 mph - 0.09 in Rain Rain
3:11 PM 53.6 °F - 51.8 °F 94% 29.79 in 6.0 mi NNW 8.1 mph - 0.02 in Rain Light Rain
3:28 PM 53.6 °F - 51.8 °F 94% 29.80 in 6.0 mi NNW 12.7 mph 19.6 mph 0.04 in Rain Light Rain
3:52 PM 54.0 °F - 51.1 °F 90% 29.79 in 9.0 mi North 12.7 mph 23.0 mph 0.05 in Rain Light Rain
3:59 PM 53.6 °F - 51.8 °F 94% 29.82 in 7.0 mi North 12.7 mph 23.0 mph 0.01 in Rain Light Rain
4:25 PM 53.6 °F - 51.8 °F 94% 29.83 in 5.0 mi North 10.4 mph 20.7 mph 0.04 in Rain Light Rain
4:45 PM 53.6 °F - 51.8 °F 94% 29.84 in 5.0 mi NNW 4.6 mph - 0.07 in Rain Light Rain
4:52 PM 53.1 °F - 52.0 °F 96% 29.82 in 5.0 mi Variable 6.9 mph - 0.08 in Rain Light Rain
5:04 PM 53.6 °F - 51.8 °F 94% 29.85 in 5.0 mi NNW 6.9 mph - 0.02 in Rain Light Rain
5:18 PM 53.6 °F - 53.6 °F 100% 29.85 in 7.0 mi NNW 3.5 mph - 0.03 in Rain Light Rain
5:27 PM 53.6 °F - 53.6 °F 100% 29.85 in 5.0 mi NNW 3.5 mph - 0.04 in Rain Light Rain
5:52 PM 54.0 °F - 53.1 °F 97% 29.84 in 9.0 mi Variable 6.9 mph - 0.05 in Rain Light Rain
5:59 PM 53.6 °F - 53.6 °F 100% 29.86 in 10.0 mi North 5.8 mph - 0.00 in Rain Light Rain
6:52 PM 53.1 °F - 52.0 °F 96% 29.86 in 10.0 mi North 6.9 mph - 0.01 in   Mostly Cloudy
7:52 PM 52.0 °F - 51.1 °F 97% 29.88 in 10.0 mi NNE 4.6 mph - N/A   Partly Cloudy
8:52 PM 48.9 °F - 48.0 °F 97% 29.91 in 10.0 mi SSW 6.9 mph - N/A   Clear
9:52 PM 48.9 °F - 48.0 °F 97% 29.93 in 5.0 mi Calm Calm - N/A   Clear
10:06 PM 48.2 °F - 46.4 °F 93% 29.95 in 1.8 mi Calm Calm - N/A   Clear
10:37 PM 46.4 °F - 46.4 °F 100% 29.96 in 0.8 mi Calm Calm - N/A   Clear
10:52 PM 45.0 °F - 45.0 °F 100% 29.95 in 0.5 mi Calm Calm - N/A Fog Fog
11:17 PM 44.6 °F 43.1 °F 44.6 °F 100% 29.96 in 1.2 mi West 3.5 mph - N/A   Scattered Clouds
11:22 PM 44.6 °F 43.1 °F 44.6 °F 100% 29.96 in 3.0 mi West 3.5 mph - N/A   Partly Cloudy
11:52 PM 45.0 °F - 45.0 °F 100% 29.96 in 5.0 mi Calm Calm - N/A   Clear
11:57 PM 44.6 °F - 44.6 °F 100% 29.96 in 1.8 mi Calm Calm - N/A   Clear